User: anonymous   Login
Location: Artiguedieu
(43.5000°N, 0.5454°E)
Time: 10:19:37
(UTC+00:00)
Language:

A-11 Canister half - Orbit

View from above orbital plane
View from above orbital plane
View from above satellite
View from above satellite

Ground track
Ground track

The orbit data is extracted from the following two-line orbital elements,

1 00053U 60009E   21214.89473611 -.00000050  00000-0  33075-3 0  9999
2 00053  47.2779  70.1604 0097175 216.8780 142.5297 12.17256728718686
Epoch (UTC): 02 August 2021 21:28:25
Eccentricity: 0.0097175
inclination: 47.2779°
perigee height: 1527 km
apogee height: 1682 km
right ascension of ascending node: 70.1604°
argument of perigee: 216.8780°
revolutions per day: 12.17256728
mean anomaly at epoch: 142.5297°
orbit number at epoch: 71868

The dashed part of the orbit path shows where the satellite is in the earth's shadow,  

DLR